Location: Augirein
(42.9320°N, 0.9181°E)
Time: 02:11:44
(UTC+00:00)

Cosmos 468 Rocket - Pass Details

Date: 20 June 2021
Orbit: 743 x 780 km, 74.0° (Epoch: 04 August)

Event Time Altitude Azimuth Distance (km) Brightness Sun altitude
Exits shadow 01:00:58 46° 235° (SW) 1,006 4.2 -22.1°
Maximum altitude 01:02:19 63° 293° (WNW) 840 4.1 -22.0°
Drops below altitude 10° 01:07:30 10° 14° (NNE) 2,304 7.6 -21.7°
Sets 01:09:55 0° 18° (NNE) 3,240 8.8 -21.6°
